Yachihoko-I

operational
NORAD ID: 66316 Int'l Des: 2025-252 Owner: QPS Country: J
NOTLE

Über Yachihoko-I

Beschreibung wird geladen...

Live-Position

3D-Globus wird geladen...

Nächste Überflüge

Höhenverlauf

Altitude vs Time

uPlot chart will show altitude changes over time

Zweizeiliger Elementsatz

1 66316U 25252A 25355.47194140 .00004084 00000-0 35671-3 0 9999
2 66316 42.0059 27.5472 0008538 210.0768 149.9567 14.97813313 6848
Epoch: 21. Dez. 2025 • Age: 11 hours

Aktueller Status

Höhe 583.1 km
Geschwindigkeit 7.57 km/s
Subsatellitenpunkt -33.42°S, 86.74°W
Startdatum 5. Nov. 2025
Alter 0.1 years
Typ other

Technische Details

Klassifizierung Payload
Masse 120.00 kg
Trockenmasse 100.00 kg
Gesamtmasse 120.00 kg
Länge 0.60 m
Durchmesser 0.80 m
Spannweite 3.60 m
Form Hex Cyl + 2 Pan + Dish
Hersteller QPS
Bus-Typ QSAT
Phasenstatus In Orbit
Besitzer/Staat QPS/J

Große Konstellationen

Loading constellations...